Time,TemperatureF,DewpointF,PressureIn,WindDirection,WindDirectionDegrees,WindSpeedMPH,WindSpeedGustMPH,Humidity,HourlyPrecipIn,Conditions,Clouds,dailyrainin,SoftwareType,DateUTC
2013-01-06 00:00:00,29.6,24.8,30.03,SSW,202,3.0,3.0,82,0.00,,,0.02,Wunderground v.1.15,2013-01-06 05:00:00,
2013-01-06 00:02:00,29.5,24.7,30.03,SSW,205,3.0,3.0,82,0.00,,,0.02,Wunderground v.1.15,2013-01-06 05:02:00,
2013-01-06 00:06:00,29.5,24.4,30.03,SSW,194,3.0,3.0,81,0.00,,,0.02,Wunderground v.1.15,2013-01-06 05:06:00,
2013-01-06 00:08:00,29.6,24.8,30.02,SSW,196,3.0,3.0,82,0.00,,,0.02,Wunderground v.1.15,2013-01-06 05:08:00,
2013-01-06 00:14:00,29.5,24.7,30.02,South,190,3.0,4.0,82,0.00,,,0.02,Wunderground v.1.15,2013-01-06 05:14:00,
2013-01-06 00:19:00,29.4,24.9,30.01,South,184,4.0,5.0,83,0.00,,,0.00,Wunderground v.1.15,2013-01-06 05:19:00,
2013-01-06 00:25:00,29.3,24.8,30.00,South,190,3.0,5.0,83,0.00,,,0.00,Wunderground v.1.15,2013-01-06 05:25:00,
2013-01-06 00:32:00,29.2,24.7,30.00,SSW,200,2.0,7.0,83,0.00,,,0.00,Wunderground v.1.15,2013-01-06 05:32:00,
2013-01-06 00:38:00,29.2,24.7,30.00,SSW,201,3.0,7.0,83,0.00,,,0.00,Wunderground v.1.15,2013-01-06 05:38:00,
2013-01-06 00:43:00,29.3,24.8,30.01,SSW,194,4.0,7.0,83,0.00,,,0.00,Wunderground v.1.15,2013-01-06 05:43:00,
2013-01-06 00:50:00,29.4,24.6,30.01,SSW,205,4.0,4.0,82,0.00,,,0.00,Wunderground v.1.15,2013-01-06 05:50:00,
2013-01-06 00:56:00,29.4,24.6,30.01,South,187,4.0,7.0,82,0.00,,,0.00,Wunderground v.1.15,2013-01-06 05:56:00,
2013-01-06 01:02:00,29.4,24.6,30.01,SSW,203,4.0,4.0,82,0.00,,,0.00,Wunderground v.1.15,2013-01-06 06:02:00,
2013-01-06 01:08:00,29.4,24.6,30.00,SW,221,4.0,5.0,82,0.00,,,0.00,Wunderground v.1.15,2013-01-06 06:08:00,
2013-01-06 01:14:00,29.6,24.8,30.00,SSW,202,4.0,4.0,82,0.00,,,0.00,Wunderground v.1.15,2013-01-06 06:14:00,
2013-01-06 01:20:00,29.7,24.9,30.00,South,190,3.0,4.0,82,0.00,,,0.00,Wunderground v.1.15,2013-01-06 06:20:00,
2013-01-06 01:26:00,29.7,24.9,30.00,SSW,208,3.0,4.0,82,0.00,,,0.00,Wunderground v.1.15,2013-01-06 06:26:00,
2013-01-06 01:32:00,29.8,25.0,29.99,SSW,198,2.0,7.0,82,0.00,,,0.00,Wunderground v.1.15,2013-01-06 06:32:00,
2013-01-06 01:37:00,29.9,24.8,29.98,SSW,194,2.0,7.0,81,0.00,,,0.00,Wunderground v.1.15,2013-01-06 06:37:00,
2013-01-06 01:44:00,29.9,24.8,29.98,SSW,195,3.0,7.0,81,0.00,,,0.00,Wunderground v.1.15,2013-01-06 06:44:00,
2013-01-06 01:50:00,30.0,24.9,29.98,SSW,207,3.0,7.0,81,0.00,,,0.00,Wunderground v.1.15,2013-01-06 06:50:00,
2013-01-06 01:56:00,30.2,25.1,29.99,SSW,211,3.0,7.0,81,0.00,,,0.00,Wunderground v.1.15,2013-01-06 06:56:00,
2013-01-06 02:02:00,30.2,25.1,29.98,South,188,3.0,4.0,81,0.00,,,0.00,Wunderground v.1.15,2013-01-06 07:02:00,
2013-01-06 02:08:00,30.2,25.1,29.98,SSW,211,3.0,4.0,81,0.00,,,0.00,Wunderground v.1.15,2013-01-06 07:08:00,
2013-01-06 02:14:00,30.3,25.5,29.99,SSW,200,3.0,3.0,82,0.00,,,0.00,Wunderground v.1.15,2013-01-06 07:14:00,
2013-01-06 02:20:00,30.3,25.5,29.99,SSW,205,3.0,3.0,82,0.00,,,0.00,Wunderground v.1.15,2013-01-06 07:20:00,
2013-01-06 02:26:00,30.3,25.8,29.98,SSW,197,3.0,4.0,83,0.00,,,0.00,Wunderground v.1.15,2013-01-06 07:26:00,
2013-01-06 02:32:00,30.2,25.7,29.98,South,190,4.0,4.0,83,0.00,,,0.00,Wunderground v.1.15,2013-01-06 07:32:00,
2013-01-06 02:38:00,30.1,25.6,29.98,SSW,193,4.0,5.0,83,0.00,,,0.00,Wunderground v.1.15,2013-01-06 07:38:00,
2013-01-06 02:44:00,30.0,25.5,29.98,SSW,196,4.0,5.0,83,0.00,,,0.00,Wunderground v.1.15,2013-01-06 07:44:00,
2013-01-06 02:50:00,29.9,25.4,29.97,South,182,5.0,5.0,83,0.00,,,0.00,Wunderground v.1.15,2013-01-06 07:50:00,
2013-01-06 02:56:00,29.8,25.6,29.97,South,172,4.0,5.0,84,0.00,,,0.00,Wunderground v.1.15,2013-01-06 07:56:00,
2013-01-06 03:02:00,29.6,25.4,29.97,SSW,196,3.0,5.0,84,0.00,,,0.00,Wunderground v.1.15,2013-01-06 08:02:00,
2013-01-06 03:08:00,29.6,25.4,29.97,SSW,201,4.0,5.0,84,0.00,,,0.00,Wunderground v.1.15,2013-01-06 08:08:00,
2013-01-06 03:13:00,29.7,25.5,29.96,South,186,4.0,5.0,84,0.00,,,0.00,Wunderground v.1.15,2013-01-06 08:13:00,
2013-01-06 03:20:00,29.7,25.5,29.96,SSW,195,4.0,4.0,84,0.00,,,0.00,Wunderground v.1.15,2013-01-06 08:20:00,
2013-01-06 03:26:00,29.9,25.7,29.95,South,180,4.0,5.0,84,0.00,,,0.00,Wunderground v.1.15,2013-01-06 08:26:00,
2013-01-06 03:32:00,30.0,25.8,29.95,SSW,198,4.0,6.0,84,0.00,,,0.00,Wunderground v.1.15,2013-01-06 08:32:00,
2013-01-06 03:38:00,30.2,25.7,29.95,SSW,192,4.0,6.0,83,0.00,,,0.00,Wunderground v.1.15,2013-01-06 08:38:00,
2013-01-06 03:44:00,30.4,25.6,29.95,SSW,200,5.0,6.0,82,0.00,,,0.00,Wunderground v.1.15,2013-01-06 08:44:00,
2013-01-06 03:50:00,30.6,25.8,29.94,SW,214,5.0,5.0,82,0.00,,,0.00,Wunderground v.1.15,2013-01-06 08:50:00,
2013-01-06 03:56:00,30.7,25.6,29.94,SSW,203,5.0,6.0,81,0.00,,,0.00,Wunderground v.1.15,2013-01-06 08:56:00,
2013-01-06 04:02:00,30.8,25.7,29.93,SSW,210,5.0,5.0,81,0.00,,,0.00,Wunderground v.1.15,2013-01-06 09:02:00,
2013-01-06 04:08:00,30.8,25.7,29.93,SSW,201,5.0,6.0,81,0.00,,,0.00,Wunderground v.1.15,2013-01-06 09:08:00,
2013-01-06 04:14:00,30.8,25.7,29.93,SSW,195,5.0,7.0,81,0.00,,,0.00,Wunderground v.1.15,2013-01-06 09:14:00,
2013-01-06 04:20:00,30.8,25.7,29.92,SSW,198,5.0,5.0,81,0.00,,,0.00,Wunderground v.1.15,2013-01-06 09:20:00,
2013-01-06 04:26:00,30.9,25.8,29.92,SW,222,5.0,6.0,81,0.00,,,0.00,Wunderground v.1.15,2013-01-06 09:26:00,
2013-01-06 04:32:00,31.0,25.9,29.92,South,185,5.0,7.0,81,0.00,,,0.00,Wunderground v.1.15,2013-01-06 09:32:00,
2013-01-06 04:38:00,31.1,26.0,29.91,SSW,196,5.0,7.0,81,0.00,,,0.00,Wunderground v.1.15,2013-01-06 09:38:00,
2013-01-06 04:44:00,31.1,26.0,29.91,SSW,197,5.0,7.0,81,0.00,,,0.00,Wunderground v.1.15,2013-01-06 09:44:00,
2013-01-06 04:50:00,31.1,26.0,29.91,SSW,207,5.0,7.0,81,0.00,,,0.00,Wunderground v.1.15,2013-01-06 09:50:00,
2013-01-06 04:56:00,31.2,26.0,29.91,South,188,5.0,7.0,81,0.00,,,0.00,Wunderground v.1.15,2013-01-06 09:56:00,
2013-01-06 05:02:00,31.2,26.0,29.91,SSW,203,4.0,6.0,81,0.00,,,0.00,Wunderground v.1.15,2013-01-06 10:02:00,
2013-01-06 05:08:00,31.3,26.1,29.91,SSW,194,5.0,6.0,81,0.00,,,0.00,Wunderground v.1.15,2013-01-06 10:08:00,
2013-01-06 05:14:00,31.4,26.2,29.91,South,188,5.0,6.0,81,0.00,,,0.00,Wunderground v.1.15,2013-01-06 10:14:00,
2013-01-06 05:20:00,31.4,26.2,29.91,SSW,202,4.0,4.0,81,0.00,,,0.00,Wunderground v.1.15,2013-01-06 10:20:00,
2013-01-06 05:26:00,31.4,26.2,29.91,SW,219,3.0,5.0,81,0.00,,,0.00,Wunderground v.1.15,2013-01-06 10:26:00,
2013-01-06 05:32:00,31.4,26.2,29.91,SW,220,3.0,12.0,81,0.00,,,0.00,Wunderground v.1.15,2013-01-06 10:32:00,
2013-01-06 05:38:00,31.4,26.2,29.91,SSW,203,3.0,12.0,81,0.00,,,0.00,Wunderground v.1.15,2013-01-06 10:38:00,
2013-01-06 05:44:00,31.3,26.4,29.91,SSW,197,4.0,12.0,82,0.00,,,0.00,Wunderground v.1.15,2013-01-06 10:44:00,
2013-01-06 05:50:00,31.2,26.6,29.91,SSW,200,4.0,12.0,83,0.00,,,0.00,Wunderground v.1.15,2013-01-06 10:50:00,
2013-01-06 05:56:00,31.2,26.6,29.91,SSW,202,4.0,12.0,83,0.00,,,0.00,Wunderground v.1.15,2013-01-06 10:56:00,
2013-01-06 06:02:00,31.1,26.8,29.91,SSW,196,4.0,4.0,84,0.00,,,0.00,Wunderground v.1.15,2013-01-06 11:02:00,
2013-01-06 06:08:00,31.2,26.9,29.91,SSW,205,3.0,4.0,84,0.00,,,0.00,Wunderground v.1.15,2013-01-06 11:08:00,
2013-01-06 06:14:00,31.2,26.9,29.91,SSW,211,4.0,4.0,84,0.00,,,0.00,Wunderground v.1.15,2013-01-06 11:14:00,
2013-01-06 06:20:00,31.2,27.2,29.91,SW,217,4.0,5.0,85,0.00,,,0.00,Wunderground v.1.15,2013-01-06 11:20:00,
2013-01-06 06:26:00,31.2,27.2,29.91,SSW,196,4.0,6.0,85,0.00,,,0.00,Wunderground v.1.15,2013-01-06 11:26:00,
2013-01-06 06:32:00,31.2,27.2,29.91,SSW,195,4.0,7.0,85,0.00,,,0.00,Wunderground v.1.15,2013-01-06 11:32:00,
2013-01-06 06:38:00,31.2,27.2,29.91,SSW,213,3.0,7.0,85,0.00,,,0.00,Wunderground v.1.15,2013-01-06 11:38:00,
2013-01-06 06:44:00,31.3,27.3,29.91,South,188,3.0,7.0,85,0.00,,,0.00,Wunderground v.1.15,2013-01-06 11:44:00,
2013-01-06 06:50:00,31.4,27.1,29.91,SW,221,3.0,7.0,84,0.00,,,0.00,Wunderground v.1.15,2013-01-06 11:50:00,
2013-01-06 06:56:00,31.5,27.2,29.91,SSW,210,2.0,7.0,84,0.00,,,0.00,Wunderground v.1.15,2013-01-06 11:56:00,
2013-01-06 07:02:00,31.7,27.4,29.91,SW,214,3.0,3.0,84,0.00,,,0.00,Wunderground v.1.15,2013-01-06 12:02:00,
2013-01-06 07:08:00,31.9,27.3,29.91,SW,216,2.0,3.0,83,0.00,,,0.00,Wunderground v.1.15,2013-01-06 12:08:00,
2013-01-06 07:16:00,32.0,27.4,29.91,SSW,205,2.0,2.0,83,0.00,,,0.00,Wunderground v.1.15,2013-01-06 12:16:00,
2013-01-06 07:22:00,31.9,27.3,29.91,SSW,206,2.0,2.0,83,0.00,,,0.00,Wunderground v.1.15,2013-01-06 12:22:00,
2013-01-06 07:28:00,31.9,27.3,29.91,SSW,207,1.0,2.0,83,0.00,,,0.00,Wunderground v.1.15,2013-01-06 12:28:00,
2013-01-06 07:34:00,31.9,27.3,29.91,SSW,207,1.0,10.0,83,0.00,,,0.00,Wunderground v.1.15,2013-01-06 12:34:00,
2013-01-06 07:40:00,31.8,27.2,29.91,SSW,198,1.0,10.0,83,0.00,,,0.00,Wunderground v.1.15,2013-01-06 12:40:00,
2013-01-06 07:48:00,31.6,27.3,29.91,South,182,1.0,10.0,84,0.00,,,0.00,Wunderground v.1.15,2013-01-06 12:48:00,
2013-01-06 07:54:00,31.4,27.1,29.91,South,182,2.0,10.0,84,0.00,,,0.00,Wunderground v.1.15,2013-01-06 12:54:00,
2013-01-06 08:00:00,31.2,27.2,29.91,South,184,1.0,1.0,85,0.00,,,0.00,Wunderground v.1.15,2013-01-06 13:00:00,
2013-01-06 08:06:00,31.1,27.1,29.91,South,186,1.0,2.0,85,0.00,,,0.00,Wunderground v.1.15,2013-01-06 13:06:00,
2013-01-06 08:12:00,31.1,27.4,29.91,SSW,192,1.0,2.0,86,0.00,,,0.00,Wunderground v.1.15,2013-01-06 13:12:00,
2013-01-06 08:22:00,31.4,27.7,29.90,SSW,194,2.0,2.0,86,0.00,,,0.00,Wunderground v.1.15,2013-01-06 13:22:00,
2013-01-06 08:28:00,31.7,27.7,29.90,South,190,1.0,2.0,85,0.00,,,0.00,Wunderground v.1.15,2013-01-06 13:28:00,
2013-01-06 08:34:00,32.0,28.0,29.90,SSW,208,1.0,4.0,85,0.00,,,0.00,Wunderground v.1.15,2013-01-06 13:34:00,
2013-01-06 08:40:00,32.3,28.0,29.90,SSW,211,1.0,4.0,84,0.00,,,0.00,Wunderground v.1.15,2013-01-06 13:40:00,
2013-01-06 08:46:00,32.5,28.2,29.90,SW,223,2.0,4.0,84,0.00,,,0.00,Wunderground v.1.15,2013-01-06 13:46:00,
2013-01-06 08:52:00,32.7,28.1,29.91,SW,223,2.0,4.0,83,0.00,,,0.00,Wunderground v.1.15,2013-01-06 13:52:00,
2013-01-06 08:58:00,32.8,28.2,29.91,SW,232,2.0,4.0,83,0.00,,,0.00,Wunderground v.1.15,2013-01-06 13:58:00,
2013-01-06 09:04:00,32.8,28.2,29.91,SW,223,2.0,2.0,83,0.00,,,0.00,Wunderground v.1.15,2013-01-06 14:04:00,
2013-01-06 09:10:00,32.9,28.3,29.91,SW,229,2.0,4.0,83,0.00,,,0.00,Wunderground v.1.15,2013-01-06 14:10:00,
2013-01-06 09:16:00,33.0,28.4,29.91,SW,234,3.0,4.0,83,0.00,,,0.00,Wunderground v.1.15,2013-01-06 14:16:00,
2013-01-06 09:22:00,33.4,28.8,29.91,SW,228,3.0,4.0,83,0.00,,,0.00,Wunderground v.1.15,2013-01-06 14:22:00,
2013-01-06 09:28:00,34.0,29.1,29.91,WSW,245,3.0,4.0,82,0.00,,,0.00,Wunderground v.1.15,2013-01-06 14:28:00,
2013-01-06 09:34:00,34.6,29.4,29.90,SSW,207,4.0,6.0,81,0.00,,,0.00,Wunderground v.1.15,2013-01-06 14:34:00,
2013-01-06 09:40:00,34.7,29.2,29.90,SSW,208,4.0,4.0,80,0.00,,,0.00,Wunderground v.1.15,2013-01-06 14:40:00,
2013-01-06 09:46:00,34.8,29.3,29.90,SSW,192,4.0,5.0,80,0.00,,,0.00,Wunderground v.1.15,2013-01-06 14:46:00,
2013-01-06 09:52:00,34.7,29.2,29.90,SSW,197,5.0,5.0,80,0.00,,,0.00,Wunderground v.1.15,2013-01-06 14:52:00,
2013-01-06 09:58:00,34.7,29.5,29.90,SSW,202,4.0,5.0,81,0.00,,,0.00,Wunderground v.1.15,2013-01-06 14:58:00,
2013-01-06 10:04:00,34.8,29.6,29.90,South,189,4.0,5.0,81,0.00,,,0.00,Wunderground v.1.15,2013-01-06 15:04:00,
2013-01-06 10:10:00,35.2,29.6,29.90,SSW,199,5.0,7.0,80,0.00,,,0.00,Wunderground v.1.15,2013-01-06 15:10:00,
2013-01-06 10:16:00,35.3,29.7,29.89,SSW,201,5.0,7.0,80,0.00,,,0.00,Wunderground v.1.15,2013-01-06 15:16:00,
2013-01-06 10:22:00,35.3,29.7,29.90,SW,216,5.0,5.0,80,0.00,,,0.00,Wunderground v.1.15,2013-01-06 15:22:00,
2013-01-06 10:28:00,35.4,29.8,29.90,SSW,211,5.0,6.0,80,0.00,,,0.00,Wunderground v.1.15,2013-01-06 15:28:00,
2013-01-06 10:34:00,35.5,29.9,29.89,SSW,212,4.0,6.0,80,0.00,,,0.00,Wunderground v.1.15,2013-01-06 15:34:00,
2013-01-06 10:40:00,35.4,29.5,29.89,SW,223,4.0,4.0,79,0.00,,,0.00,Wunderground v.1.15,2013-01-06 15:40:00,
2013-01-06 10:48:00,35.3,29.7,29.89,SSW,212,4.0,8.0,80,0.00,,,0.00,Wunderground v.1.15,2013-01-06 15:48:00,
2013-01-06 10:54:00,35.3,29.7,29.89,SSW,207,4.0,8.0,80,0.00,,,0.00,Wunderground v.1.15,2013-01-06 15:54:00,
2013-01-06 11:00:00,35.3,29.7,29.88,SSW,212,4.0,5.0,80,0.00,,,0.00,Wunderground v.1.15,2013-01-06 16:00:00,
2013-01-06 11:06:00,35.4,29.8,29.89,SSW,205,5.0,6.0,80,0.00,,,0.00,Wunderground v.1.15,2013-01-06 16:06:00,
2013-01-06 11:12:00,35.5,29.9,29.88,SSW,211,4.0,7.0,80,0.00,,,0.00,Wunderground v.1.15,2013-01-06 16:12:00,
2013-01-06 11:18:00,35.5,29.6,29.88,SSW,200,5.0,7.0,79,0.00,,,0.00,Wunderground v.1.15,2013-01-06 16:18:00,
2013-01-06 11:24:00,35.6,29.7,29.88,SSW,192,4.0,8.0,79,0.00,,,0.00,Wunderground v.1.15,2013-01-06 16:24:00,
2013-01-06 11:30:00,35.7,29.8,29.87,SSW,209,4.0,4.0,79,0.00,,,0.00,Wunderground v.1.15,2013-01-06 16:30:00,
2013-01-06 11:36:00,35.9,29.7,29.87,South,191,4.0,11.0,78,0.00,,,0.00,Wunderground v.1.15,2013-01-06 16:36:00,
2013-01-06 11:42:00,36.0,29.8,29.86,SW,223,5.0,11.0,78,0.00,,,0.00,Wunderground v.1.15,2013-01-06 16:42:00,
2013-01-06 11:48:00,36.1,29.9,29.86,SSW,209,4.0,11.0,78,0.00,,,0.00,Wunderground v.1.15,2013-01-06 16:48:00,
2013-01-06 11:54:00,36.2,30.0,29.86,SSW,213,4.0,11.0,78,0.00,,,0.00,Wunderground v.1.15,2013-01-06 16:54:00,
2013-01-06 12:00:00,36.2,30.0,29.85,SW,219,5.0,5.0,78,0.00,,,0.00,Wunderground v.1.15,2013-01-06 17:00:00,
2013-01-06 12:06:00,36.3,30.1,29.85,SW,234,4.0,5.0,78,0.00,,,0.00,Wunderground v.1.15,2013-01-06 17:06:00,
2013-01-06 12:12:00,36.4,30.2,29.85,SW,220,3.0,4.0,78,0.00,,,0.00,Wunderground v.1.15,2013-01-06 17:12:00,
2013-01-06 12:18:00,36.5,30.3,29.84,SW,225,3.0,5.0,78,0.00,,,0.00,Wunderground v.1.15,2013-01-06 17:18:00,
2013-01-06 12:24:00,36.5,30.0,29.84,SSW,200,4.0,6.0,77,0.00,,,0.00,Wunderground v.1.15,2013-01-06 17:24:00,
2013-01-06 12:30:00,36.5,30.0,29.84,SSW,206,4.0,6.0,77,0.00,,,0.00,Wunderground v.1.15,2013-01-06 17:30:00,
2013-01-06 12:36:00,36.6,30.1,29.84,SSW,200,4.0,11.0,77,0.00,,,0.00,Wunderground v.1.15,2013-01-06 17:36:00,
2013-01-06 12:42:00,36.7,30.2,29.84,SW,222,4.0,11.0,77,0.00,,,0.00,Wunderground v.1.15,2013-01-06 17:42:00,
2013-01-06 12:48:00,36.8,30.3,29.83,SW,215,4.0,11.0,77,0.00,,,0.00,Wunderground v.1.15,2013-01-06 17:48:00,
2013-01-06 12:54:00,37.0,30.5,29.83,SW,226,3.0,11.0,77,0.00,,,0.00,Wunderground v.1.15,2013-01-06 17:54:00,
2013-01-06 13:00:00,37.1,30.6,29.83,SW,234,1.0,6.0,77,0.00,,,0.00,Wunderground v.1.15,2013-01-06 18:00:00,
2013-01-06 13:06:00,37.1,30.2,29.83,SW,217,2.0,6.0,76,0.00,,,0.00,Wunderground v.1.15,2013-01-06 18:06:00,
2013-01-06 13:12:00,37.1,30.6,29.83,SSW,212,3.0,3.0,77,0.00,,,0.00,Wunderground v.1.15,2013-01-06 18:12:00,
2013-01-06 13:18:00,37.1,30.2,29.83,West,263,4.0,6.0,76,0.00,,,0.00,Wunderground v.1.15,2013-01-06 18:18:00,
2013-01-06 13:24:00,37.0,30.5,29.83,SW,232,4.0,7.0,77,0.00,,,0.00,Wunderground v.1.15,2013-01-06 18:24:00,
2013-01-06 13:30:00,37.1,30.6,29.83,WSW,255,3.0,3.0,77,0.00,,,0.00,Wunderground v.1.15,2013-01-06 18:30:00,
2013-01-06 13:36:00,37.1,30.6,29.82,SW,235,3.0,9.0,77,0.00,,,0.00,Wunderground v.1.15,2013-01-06 18:36:00,
2013-01-06 13:42:00,37.2,30.7,29.82,SSW,211,4.0,9.0,77,0.00,,,0.00,Wunderground v.1.15,2013-01-06 18:42:00,
2013-01-06 13:48:00,37.3,30.7,29.82,SSW,213,4.0,9.0,77,0.00,,,0.00,Wunderground v.1.15,2013-01-06 18:48:00,
2013-01-06 13:54:00,37.5,30.9,29.82,WSW,248,3.0,9.0,77,0.00,,,0.00,Wunderground v.1.15,2013-01-06 18:54:00,
2013-01-06 14:00:00,37.7,31.1,29.82,SSW,210,3.0,5.0,77,0.00,,,0.01,Wunderground v.1.15,2013-01-06 19:00:00,
2013-01-06 14:06:00,37.8,30.9,29.82,SW,219,4.0,6.0,76,0.00,,,0.01,Wunderground v.1.15,2013-01-06 19:06:00,
2013-01-06 14:12:00,37.8,30.9,29.82,SW,224,4.0,5.0,76,0.00,,,0.01,Wunderground v.1.15,2013-01-06 19:12:00,
2013-01-06 14:18:00,37.8,30.9,29.82,South,185,4.0,10.0,76,0.00,,,0.01,Wunderground v.1.15,2013-01-06 19:18:00,
2013-01-06 14:24:00,37.8,30.9,29.82,SSW,212,4.0,4.0,76,0.00,,,0.01,Wunderground v.1.15,2013-01-06 19:24:00,
2013-01-06 14:30:00,37.8,30.9,29.82,WSW,240,3.0,3.0,76,0.00,,,0.01,Wunderground v.1.15,2013-01-06 19:30:00,
2013-01-06 14:36:00,37.7,30.8,29.82,SW,229,4.0,12.0,76,0.00,,,0.01,Wunderground v.1.15,2013-01-06 19:36:00,
2013-01-06 14:48:00,37.7,31.1,29.82,SW,235,3.0,12.0,77,0.00,,,0.01,Wunderground v.1.15,2013-01-06 19:48:00,
2013-01-06 14:54:00,37.7,31.1,29.82,SSW,213,4.0,12.0,77,0.00,,,0.01,Wunderground v.1.15,2013-01-06 19:54:00,
2013-01-06 15:00:00,37.6,31.0,29.82,WSW,246,5.0,5.0,77,0.00,,,0.01,Wunderground v.1.15,2013-01-06 20:00:00,
2013-01-06 15:06:00,37.5,30.9,29.82,SSW,211,4.0,5.0,77,0.00,,,0.01,Wunderground v.1.15,2013-01-06 20:06:00,
2013-01-06 15:12:00,37.5,30.9,29.82,SW,227,4.0,7.0,77,0.00,,,0.01,Wunderground v.1.15,2013-01-06 20:12:00,
2013-01-06 15:14:00,37.5,31.3,29.82,SW,219,4.0,7.0,78,0.00,,,0.01,Wunderground v.1.15,2013-01-06 20:14:00,
2013-01-06 15:20:00,37.5,31.3,29.82,SW,227,4.0,4.0,78,0.00,,,0.01,Wunderground v.1.15,2013-01-06 20:20:00,
2013-01-06 15:26:00,37.6,31.4,29.83,SW,224,3.0,10.0,78,0.00,,,0.01,Wunderground v.1.15,2013-01-06 20:26:00,
2013-01-06 15:32:00,37.6,31.4,29.83,SW,228,3.0,13.0,78,0.00,,,0.01,Wunderground v.1.15,2013-01-06 20:32:00,
2013-01-06 15:38:00,37.5,31.3,29.83,SW,232,3.0,13.0,78,0.00,,,0.01,Wunderground v.1.15,2013-01-06 20:38:00,
2013-01-06 15:44:00,37.5,31.6,29.83,SW,225,3.0,13.0,79,0.00,,,0.01,Wunderground v.1.15,2013-01-06 20:44:00,
2013-01-06 15:50:00,37.3,31.4,29.83,SW,225,3.0,3.0,79,0.00,,,0.01,Wunderground v.1.15,2013-01-06 20:50:00,
2013-01-06 15:56:00,37.2,31.3,29.84,SW,229,4.0,13.0,79,0.00,,,0.01,Wunderground v.1.15,2013-01-06 20:56:00,
2013-01-06 16:00:00,37.1,31.2,29.84,SW,223,4.0,4.0,79,0.00,,,0.01,Wunderground v.1.15,2013-01-06 21:00:00,
2013-01-06 16:06:00,37.0,31.4,29.84,SW,221,3.0,5.0,80,0.00,,,0.01,Wunderground v.1.15,2013-01-06 21:06:00,
2013-01-06 16:12:00,37.0,31.4,29.84,SW,223,3.0,4.0,80,0.00,,,0.01,Wunderground v.1.15,2013-01-06 21:12:00,
2013-01-06 16:18:00,36.8,31.5,29.85,SW,236,3.0,5.0,81,0.00,,,0.01,Wunderground v.1.15,2013-01-06 21:18:00,
2013-01-06 16:24:00,36.5,31.8,29.85,SSW,207,4.0,5.0,83,0.00,,,0.01,Wunderground v.1.15,2013-01-06 21:24:00,
2013-01-06 16:30:00,35.9,32.1,29.85,West,264,4.0,4.0,86,0.00,,,0.01,Wunderground v.1.15,2013-01-06 21:30:00,
2013-01-06 16:36:00,35.5,32.3,29.86,WSW,246,4.0,12.0,88,0.00,,,0.01,Wunderground v.1.15,2013-01-06 21:36:00,
2013-01-06 16:42:00,35.2,32.3,29.86,SW,217,3.0,10.0,89,0.00,,,0.01,Wunderground v.1.15,2013-01-06 21:42:00,
2013-01-06 16:48:00,34.7,32.3,29.86,SW,227,4.0,12.0,91,0.00,,,0.01,Wunderground v.1.15,2013-01-06 21:48:00,
2013-01-06 16:54:00,34.3,32.2,29.86,WNW,286,3.0,12.0,92,0.00,,,0.01,Wunderground v.1.15,2013-01-06 21:54:00,
2013-01-06 17:00:00,34.1,32.3,29.87,WSW,241,2.0,2.0,93,0.00,,,0.01,Wunderground v.1.15,2013-01-06 22:00:00,
2013-01-06 17:06:00,33.9,32.4,29.87,WSW,246,1.0,2.0,94,0.00,,,0.01,Wunderground v.1.15,2013-01-06 22:06:00,
2013-01-06 17:14:00,33.8,32.5,29.87,WSW,246,0.0,0.0,95,0.00,,,0.01,Wunderground v.1.15,2013-01-06 22:14:00,
2013-01-06 17:20:00,33.8,32.5,29.87,WSW,240,0.0,2.0,95,0.00,,,0.01,Wunderground v.1.15,2013-01-06 22:20:00,
2013-01-06 17:26:00,33.8,32.5,29.87,WSW,249,1.0,3.0,95,0.00,,,0.01,Wunderground v.1.15,2013-01-06 22:26:00,
2013-01-06 17:32:00,33.7,32.7,29.87,SW,233,1.0,3.0,96,0.00,,,0.01,Wunderground v.1.15,2013-01-06 22:32:00,
2013-01-06 17:38:00,33.7,32.7,29.87,SW,229,1.0,12.0,96,0.00,,,0.01,Wunderground v.1.15,2013-01-06 22:38:00,
2013-01-06 17:44:00,33.6,32.6,29.88,SW,232,1.0,12.0,96,0.00,,,0.01,Wunderground v.1.15,2013-01-06 22:44:00,
2013-01-06 17:50:00,33.5,32.5,29.88,SW,229,1.0,12.0,96,0.00,,,0.01,Wunderground v.1.15,2013-01-06 22:50:00,
2013-01-06 17:56:00,33.5,32.5,29.88,SW,219,1.0,12.0,96,0.00,,,0.01,Wunderground v.1.15,2013-01-06 22:56:00,
2013-01-06 18:02:00,33.5,32.5,29.88,SW,234,1.0,6.0,96,0.00,,,0.01,Wunderground v.1.15,2013-01-06 23:02:00,
2013-01-06 18:08:00,33.5,32.7,29.88,SW,227,2.0,6.0,97,0.00,,,0.01,Wunderground v.1.15,2013-01-06 23:08:00,
2013-01-06 18:14:00,33.5,32.7,29.89,SW,218,2.0,4.0,97,0.00,,,0.01,Wunderground v.1.15,2013-01-06 23:14:00,
2013-01-06 18:20:00,33.5,32.7,29.89,SW,225,1.0,1.0,97,0.00,,,0.01,Wunderground v.1.15,2013-01-06 23:20:00,
2013-01-06 18:26:00,33.5,32.7,29.89,SW,217,1.0,2.0,97,0.00,,,0.01,Wunderground v.1.15,2013-01-06 23:26:00,
2013-01-06 18:32:00,33.5,32.7,29.89,SW,218,1.0,4.0,97,0.00,,,0.01,Wunderground v.1.15,2013-01-06 23:32:00,
2013-01-06 18:38:00,33.4,32.6,29.89,SW,228,1.0,4.0,97,0.00,,,0.01,Wunderground v.1.15,2013-01-06 23:38:00,
2013-01-06 18:44:00,33.4,32.6,29.89,SW,227,1.0,4.0,97,0.00,,,0.01,Wunderground v.1.15,2013-01-06 23:44:00,
2013-01-06 18:50:00,33.4,32.6,29.89,SSW,210,1.0,4.0,97,0.00,,,0.01,Wunderground v.1.15,2013-01-06 23:50:00,
2013-01-06 18:56:00,33.4,32.6,29.89,SW,230,1.0,4.0,97,0.00,,,0.01,Wunderground v.1.15,2013-01-06 23:56:00,
2013-01-06 19:02:00,33.4,32.6,29.89,SW,229,1.0,2.0,97,0.00,,,0.01,Wunderground v.1.15,2013-01-07 00:02:00,
2013-01-06 19:08:00,33.4,32.6,29.89,SW,232,1.0,2.0,97,0.00,,,0.01,Wunderground v.1.15,2013-01-07 00:08:00,
2013-01-06 19:14:00,33.4,32.6,29.89,SW,225,1.0,1.0,97,0.00,,,0.01,Wunderground v.1.15,2013-01-07 00:14:00,
2013-01-06 19:20:00,33.4,32.6,29.90,SW,235,1.0,1.0,97,0.00,,,0.01,Wunderground v.1.15,2013-01-07 00:20:00,
2013-01-06 19:26:00,33.4,32.9,29.90,SW,220,1.0,1.0,98,0.00,,,0.01,Wunderground v.1.15,2013-01-07 00:26:00,
2013-01-06 19:32:00,33.4,32.9,29.90,SW,221,1.0,4.0,98,0.00,,,0.01,Wunderground v.1.15,2013-01-07 00:32:00,
2013-01-06 19:38:00,33.4,32.9,29.90,WSW,238,1.0,4.0,98,0.00,,,0.01,Wunderground v.1.15,2013-01-07 00:38:00,
2013-01-06 19:44:00,33.4,32.9,29.90,SW,221,1.0,4.0,98,0.00,,,0.01,Wunderground v.1.15,2013-01-07 00:44:00,
2013-01-06 19:50:00,33.4,32.9,29.90,SW,227,1.0,4.0,98,0.00,,,0.01,Wunderground v.1.15,2013-01-07 00:50:00,
2013-01-06 19:56:00,33.4,32.9,29.90,SW,214,1.0,4.0,98,0.00,,,0.01,Wunderground v.1.15,2013-01-07 00:56:00,
2013-01-06 20:02:00,33.5,33.0,29.90,WSW,244,1.0,1.0,98,0.00,,,0.01,Wunderground v.1.15,2013-01-07 01:02:00,
2013-01-06 20:08:00,33.5,33.0,29.90,SW,227,1.0,1.0,98,0.00,,,0.01,Wunderground v.1.15,2013-01-07 01:08:00,
2013-01-06 20:14:00,33.5,33.0,29.90,SW,226,1.0,1.0,98,0.00,,,0.01,Wunderground v.1.15,2013-01-07 01:14:00,
2013-01-06 20:20:00,33.5,33.0,29.90,SW,229,1.0,2.0,98,0.00,,,0.01,Wunderground v.1.15,2013-01-07 01:20:00,
2013-01-06 20:26:00,33.6,33.1,29.91,WSW,239,1.0,2.0,98,0.00,,,0.01,Wunderground v.1.15,2013-01-07 01:26:00,
2013-01-06 20:32:00,33.7,33.2,29.90,WSW,241,1.0,4.0,98,0.00,,,0.01,Wunderground v.1.15,2013-01-07 01:32:00,
2013-01-06 20:38:00,33.7,33.2,29.91,SW,223,1.0,4.0,98,0.00,,,0.01,Wunderground v.1.15,2013-01-07 01:38:00,
2013-01-06 20:44:00,33.6,33.1,29.91,SW,225,2.0,4.0,98,0.00,,,0.01,Wunderground v.1.15,2013-01-07 01:44:00,
2013-01-06 20:50:00,33.6,33.1,29.91,WSW,240,1.0,4.0,98,0.00,,,0.01,Wunderground v.1.15,2013-01-07 01:50:00,
2013-01-06 20:56:00,33.6,33.1,29.91,WSW,240,1.0,4.0,98,0.00,,,0.01,Wunderground v.1.15,2013-01-07 01:56:00,
2013-01-06 21:02:00,33.6,33.1,29.92,WNW,284,1.0,1.0,98,0.00,,,0.01,Wunderground v.1.15,2013-01-07 02:02:00,
2013-01-06 21:08:00,33.7,33.2,29.91,West,263,2.0,4.0,98,0.00,,,0.01,Wunderground v.1.15,2013-01-07 02:08:00,
2013-01-06 21:14:00,33.7,33.2,29.92,WSW,251,2.0,5.0,98,0.00,,,0.01,Wunderground v.1.15,2013-01-07 02:14:00,
2013-01-06 21:20:00,33.7,33.2,29.92,WNW,290,3.0,3.0,98,0.00,,,0.01,Wunderground v.1.15,2013-01-07 02:20:00,
2013-01-06 21:26:00,33.7,33.2,29.92,West,260,3.0,4.0,98,0.00,,,0.01,Wunderground v.1.15,2013-01-07 02:26:00,
2013-01-06 21:32:00,33.7,33.2,29.92,NW,305,3.0,5.0,98,0.00,,,0.01,Wunderground v.1.15,2013-01-07 02:32:00,
2013-01-06 21:38:00,33.7,33.2,29.92,WNW,292,3.0,5.0,98,0.00,,,0.01,Wunderground v.1.15,2013-01-07 02:38:00,
2013-01-06 21:44:00,33.7,33.2,29.92,West,262,3.0,4.0,98,0.00,,,0.01,Wunderground v.1.15,2013-01-07 02:44:00,
2013-01-06 21:50:00,33.7,33.2,29.93,WNW,292,2.0,4.0,98,0.00,,,0.01,Wunderground v.1.15,2013-01-07 02:50:00,
2013-01-06 21:56:00,33.7,33.2,29.93,WNW,290,3.0,4.0,98,0.00,,,0.01,Wunderground v.1.15,2013-01-07 02:56:00,
2013-01-06 22:02:00,33.8,33.3,29.92,WNW,289,3.0,4.0,98,0.00,,,0.01,Wunderground v.1.15,2013-01-07 03:02:00,
2013-01-06 22:08:00,33.8,33.3,29.92,WSW,244,4.0,4.0,98,0.00,,,0.01,Wunderground v.1.15,2013-01-07 03:08:00,
2013-01-06 22:14:00,33.8,33.3,29.93,WNW,295,4.0,4.0,98,0.00,,,0.01,Wunderground v.1.15,2013-01-07 03:14:00,
2013-01-06 22:20:00,33.8,33.3,29.93,WNW,290,3.0,3.0,98,0.00,,,0.01,Wunderground v.1.15,2013-01-07 03:20:00,
2013-01-06 22:26:00,33.8,33.5,29.93,West,277,2.0,3.0,99,0.00,,,0.01,Wunderground v.1.15,2013-01-07 03:26:00,
2013-01-06 22:32:00,33.8,33.5,29.94,West,277,2.0,6.0,99,0.00,,,0.01,Wunderground v.1.15,2013-01-07 03:32:00,
2013-01-06 22:38:00,33.8,33.5,29.94,West,274,1.0,6.0,99,0.00,,,0.01,Wunderground v.1.15,2013-01-07 03:38:00,
2013-01-06 22:44:00,33.8,33.5,29.94,West,281,1.0,6.0,99,0.00,,,0.01,Wunderground v.1.15,2013-01-07 03:44:00,
2013-01-06 22:50:00,33.8,33.3,29.94,West,278,2.0,6.0,98,0.00,,,0.01,Wunderground v.1.15,2013-01-07 03:50:00,
2013-01-06 22:56:00,33.9,33.4,29.94,WNW,293,3.0,6.0,98,0.00,,,0.01,Wunderground v.1.15,2013-01-07 03:56:00,
2013-01-06 23:02:00,33.9,33.4,29.95,WNW,301,3.0,4.0,98,0.00,,,0.01,Wunderground v.1.15,2013-01-07 04:02:00,
2013-01-06 23:08:00,33.9,33.4,29.95,WNW,298,4.0,5.0,98,0.00,,,0.01,Wunderground v.1.15,2013-01-07 04:08:00,
2013-01-06 23:14:00,34.0,33.5,29.95,NW,323,5.0,6.0,98,0.00,,,0.01,Wunderground v.1.15,2013-01-07 04:14:00,
2013-01-06 23:20:00,33.9,33.4,29.95,NW,310,6.0,6.0,98,0.00,,,0.01,Wunderground v.1.15,2013-01-07 04:20:00,
2013-01-06 23:26:00,34.0,33.5,29.95,West,279,7.0,9.0,98,0.00,,,0.01,Wunderground v.1.15,2013-01-07 04:26:00,
2013-01-06 23:32:00,34.0,33.5,29.95,WNW,289,7.0,8.0,98,0.00,,,0.01,Wunderground v.1.15,2013-01-07 04:32:00,
2013-01-06 23:38:00,34.0,33.2,29.95,West,269,7.0,8.0,97,0.00,,,0.01,Wunderground v.1.15,2013-01-07 04:38:00,
2013-01-06 23:44:00,34.1,33.1,29.95,WNW,294,8.0,11.0,96,0.00,,,0.01,Wunderground v.1.15,2013-01-07 04:44:00,
2013-01-06 23:50:00,34.1,33.1,29.95,West,278,8.0,8.0,96,0.00,,,0.01,Wunderground v.1.15,2013-01-07 04:50:00,
2013-01-06 23:56:00,34.2,33.2,29.96,West,281,7.0,9.0,96,0.00,,,0.01,Wunderground v.1.15,2013-01-07 04:56:00,